Flag for United Arab Emirates Weather past 2 weeks in Dubai, Dubai, United Arab Emirates

Now
72 °F

Passing clouds.


Feels Like: 75 °F
Forecast: 72 / 75 °F
Wind: 7 mph from Southwest

Location: Dubai International Airport

Current Time: Dec 22, 2014 at 7:50:02 PM

Latest Report: Dec 22, 2014 at 7:00 PM


Visibility: N/A

Pressure: 29.95 "Hg

Humidity: 65%

Dew point: 59 °F

Location of DubaiLocation

Historic Weather in Dubai — Graph

°F

Dubai temperature yesterday

Maximum temperature yesterday: 73 °F (at 12:00 PM)
Minimum temperature yesterday: 63 °F (at 7:00 AM)
Average temperature yesterday: 70 °F

Past Weeks' High & Low Weather Summary

 TemperatureHumidityPressure
High86 °F (Dec 8, 12:00 PM)94% (Dec 12, 6:00 AM)30.21 "Hg (Dec 12, 6:00 AM)
Low59 °F (Dec 22, 6:00 AM)11% (Dec 14, 3:00 PM)29.92 "Hg (Dec 22, 3:00 PM)
Average73 °F51%30.08 "Hg
* Reported Dec 7 6:00 PM — Dec 22 6:00 PM, Dubai, Weather by CustomWeather, © 2014

Note: Actual official high and low records may vary slightly from our data, if they occured in-between our weather recording intervals... More about our weather records

Advertising

Dubai weather history for previous 24 hours

 ConditionsComfort  
Time TempWeatherWind HumidityBarometerVisibility
6:00 PM
Dec 22
73 °FClear.7 mph61%29.92 "Hg10 mi
5:00 PM73 °FSunny.9 mph57%29.92 "Hg10 mi
4:00 PM75 °FSunny.12 mph41%29.92 "Hg10 mi
3:00 PM75 °FPassing clouds.12 mph44%29.92 "HgN/A
2:00 PM75 °FSunny.8 mph50%29.95 "Hg10 mi
1:00 PM75 °FPassing clouds.7 mph50%29.95 "HgN/A
12:00 PM72 °FPassing clouds.7 mph57%29.98 "HgN/A
11:00 AM72 °FSunny.9 mph57%30.01 "Hg10 mi
10:00 AM68 °FSunny.8 mph56%30.01 "Hg10 mi
9:00 AM64 °FClear.7 mph60%30.01 "Hg5 mi
8:00 AM61 °FClear.6 mph68%29.98 "Hg4 mi
7:00 AM59 °FClear.5 mph72%29.98 "Hg4 mi
6:00 AM59 °FClear.8 mph77%29.95 "Hg5 mi
5:00 AM61 °FClear.5 mph72%29.95 "Hg5 mi
4:00 AM61 °FClear.5 mph72%29.98 "Hg10 mi
3:00 AM63 °FClear.6 mph68%29.98 "Hg10 mi
2:00 AM63 °FPassing clouds.3 mph68%29.98 "HgN/A
1:00 AM64 °FClear.6 mph68%29.98 "Hg10 mi
12:00 AM66 °FClear.7 mph68%29.98 "Hg10 mi
11:00 PM
Dec 21
70 °FPassing clouds.5 mph64%30.01 "HgN/A
10:00 PM72 °FClear.6 mph57%30.01 "Hg10 mi
9:00 PM72 °FClear.9 mph61%30.01 "Hg10 mi
8:00 PM72 °FClear.12 mph61%29.98 "Hg10 mi
7:00 PM72 °FClear.10 mph61%29.98 "Hg10 mi
Weather by CustomWeather, © 2014

See weather overviewHow to use our weather pages